Volver al catálogo

STARLINK-35401

ActivoComunicacionesVLEO
NORAD 66067·PAYLOAD·🇺🇸 United States

Lanzado Oct 19, 2025 desde Cape Canaveral Space Force Station

Loading…

Próximos Pases (próximas 24 horas)

TLE

ActualizadoSource: CelesTrak SupGP

Época: Sep 15, 2026, 03:20 UTC

1 66067C 25235K   26258.13937500 -.00021867  00000+0 -64584-3 0  2586
2 66067  53.1585  82.4419 0001143  92.9938  39.1904 15.34412138    10

Sigue STARLINK-35401 en tiempo real con AllMySat

Download on the App Store